Tracking 34401 objects as of 17-Jun-2026
HD Live streaming from Space Station
objects crossing your sky now

QUIKSCAT

Track QUIKSCAT now!
10-day predictions
QUIKSCAT is classified as:


NORAD ID: 25789
Int'l Code: 1999-034A
Perigee: 660.5 km
Apogee: 793.8 km
Inclination: 98.3 °
Period: 99.2 minutes
Semi major axis: 7098 km
RCS: 2.9895 m2 (large)
Launch date: June 20, 1999
Source: United States (US)
Launch site: AIR FORCE WESTERN TEST RANGE (AFWTR)

Detailed snapshots of the winds swirling above the world's oceans.
Your satellite tracking list
Your tracking list is empty




NASA's NSSDC Master Catalog

Two Line Element Set (TLE):
1 25789U 99034A   26168.29527771  .00000236  00000-0  67238-4 0  9990
2 25789  98.2696  48.8734 0093927 282.2365  76.8324 14.51730186412536
Source of the keplerian elements: AFSPC